SSU 2

导读

SSU 2是美国于1976年4月30日08:00发射的人造卫星,其中SSU全称是Stratospheric Sounding Unit,即平流层探测装置。作为美国早期用于大气探测的技术试验卫星,该卫星承载着对平流层气象要素进行遥感探测的任务,旨在获取平流层的温度、大气成分等关键数据,助力科学家深入研究大气环流规律与气候变化机制,为后续气象卫星的发展积累了宝贵技术经验与科学数据。

基本信息
目录编号:
8836
目录名称:
SSU 2
国际标识:
1976-038D
轨道中心:
EARTH
卫星名称:
SSU 2
卫星全名:
--
卫星状态:
在轨 (已飞行18337 天)
发射日期:
1976-04-30 UTC
国别 :
美国 (US)
星等 :
--
轨道信息
数据来源 国际轨道数据 AOE轨道数据
星历时间 2026-07-14T12:34:39+0800
3小时前
查看轨道信息
2026-07-13T01:00:00+0800
1天前
查看轨道信息
半长轴 7331.581km 7331.581km
偏心率 0.0379207 0.0379186
轨道倾角 63.359° 63.359°
近地点辐角 180.569° 180.560°
升交点赤经 190.670° 194.747°
平近点角 179.498° 359.184°
近地点 675.425km 675.44km
远地点 1231.463km 1231.448km
周期 104.125分钟 104.125分钟
每日圈数 13.829497 13.829496
详细信息
使用方式:
暂无
2D轨道图
3D轨道图
轨道高度分析图
轨道倾角分析图
轨道综合分析图
查看轨道综合分析图